Ignacio, CO

11:32 PM MST on February 10, 2016 (GMT -0700)
Durango-La Plata County

Weather History for KDRO - June, 2013

Change the Weather History Date:

Sunday, June 16, 2013

  Actual Average Record
Temperature  
Mean Temperature 64 °F 62 °F  
Max Temperature 85 °F 82 °F 91 °F (1986)
Min Temperature 43 °F 43 °F 35 °F (1973)
Degree Days  
Heating Degree Days 1 3  
Month to date heating degree days 27 87  
Since 1 June heating degree days 27 87  
Since 1 July heating degree days 7133 7095  
Cooling Degree Days 0 1  
Month to date cooling degree days 21 9  
Year to date cooling degree days 21 10  
Since 1 June cooling degree days 21 9  
Growing Degree Days 15 (Base 50)    
Moisture  
Dew Point 35 °F    
Average Humidity 39    
Maximum Humidity 65    
Minimum Humidity 13    
Precipitation  
Precipitation 0.00 in 0.02 in 0.06 in (1984)
Month to date precipitation T 0.22  
Year to date precipitation 3.75 5.65  
Sea Level Pressure  
Sea Level Pressure 30.00 in    
Wind  
Wind Speed 6 mph (West)    
Max Wind Speed 22 mph    
Max Gust Speed 30 mph    
Visibility 10 miles    
Events      
T = Trace of Precipitation, MM = Missing Value Source: NWS Daily Summary

Daily Weather History Graph

Daily Weather History Graph

Search for Another Location

Airport or City:

Trip Planner

Search our weather history database for the weather conditions in past years. The results will help you decide how hot, cold, wet, or windy it might be!

Date:

Astronomy

Jun. 16, 2013 Rise Set
Actual Time 5:50 AM MDT 8:33 PM MDT
Civil Twilight 5:19 AM MDT 9:04 PM MDT
Nautical Twilight 4:40 AM MDT 9:42 PM MDT
Astronomical Twilight 3:57 AM MDT 10:26 PM MDT
Moon 1:19 PM MDT (6/16) 12:48 AM MDT (6/16)
Length of Visible Light 15h 44m
Length of Day
14h 42m
Waxing Crescent, 50% of the Moon is Illuminated
Jun 16
Waxing Crescent
Jun 23
Full
Jun 29
Last Quarter
Jul 8
New
Jul 15
First Quarter

Hourly Weather History & Observations

Time (MDT) Temp. Windchill Dew Point Humidity Pressure Visibility Wind Dir Wind Speed Gust Speed Precip Events Conditions
12:53 AM 51.1 °F - 37.0 °F 59% 30.01 in 10.0 mi North 4.6 mph - N/A   Clear
1:53 AM 51.1 °F - 36.0 °F 56% 30.04 in 10.0 mi North 4.6 mph - N/A   Clear
2:53 AM 46.0 °F 43.9 °F 34.0 °F 63% 30.04 in 10.0 mi NNE 4.6 mph - N/A   Clear
3:53 AM 46.0 °F - 34.0 °F 63% 30.05 in 10.0 mi Calm Calm - N/A   Clear
4:53 AM 46.9 °F - 35.1 °F 63% 30.05 in 10.0 mi Calm Calm - N/A   Clear
5:53 AM 48.0 °F - 35.1 °F 61% 30.10 in 10.0 mi SSW 4.6 mph - N/A   Clear
6:53 AM 48.9 °F - 36.0 °F 61% 30.10 in 10.0 mi Calm Calm - N/A   Clear
7:53 AM 59.0 °F - 39.0 °F 48% 30.06 in 10.0 mi Calm Calm - N/A   Clear
8:53 AM 64.9 °F - 39.0 °F 39% 30.06 in 10.0 mi Calm Calm - N/A   Clear
9:53 AM 70.0 °F - 37.9 °F 31% 30.05 in 10.0 mi Calm Calm - N/A   Clear
10:53 AM 75.0 °F - 39.0 °F 27% 30.04 in 10.0 mi Variable 5.8 mph - N/A   Partly Cloudy
11:53 AM 77.0 °F - 37.0 °F 24% 30.03 in 10.0 mi West 9.2 mph - N/A   Mostly Cloudy
12:53 PM 80.1 °F - 34.0 °F 19% 30.01 in 10.0 mi WNW 8.1 mph 20.7 mph N/A   Clear
1:53 PM 80.1 °F - 30.9 °F 17% 29.99 in 10.0 mi SW 13.8 mph 21.9 mph N/A   Scattered Clouds
2:53 PM 82.9 °F - 30.9 °F 15% 29.97 in 10.0 mi SSW 13.8 mph 26.5 mph N/A   Partly Cloudy
3:53 PM 84.0 °F - 28.9 °F 14% 29.95 in 10.0 mi SW 9.2 mph 24.2 mph N/A   Partly Cloudy
4:53 PM 84.0 °F - 30.0 °F 14% 29.93 in 10.0 mi West 17.3 mph 26.5 mph N/A   Clear
5:53 PM 84.0 °F - 30.0 °F 14% 29.92 in 10.0 mi West 17.3 mph 23.0 mph N/A   Clear
6:53 PM 82.0 °F - 30.9 °F 16% 29.91 in 10.0 mi WSW 10.4 mph - N/A   Clear
7:53 PM 75.9 °F - 32.0 °F 20% 29.92 in 10.0 mi SW 11.5 mph 18.4 mph N/A   Mostly Cloudy
8:53 PM 73.9 °F - 32.0 °F 21% 29.91 in 10.0 mi Calm Calm - N/A   Clear
9:53 PM 68.0 °F - 37.9 °F 33% 29.93 in 10.0 mi North 5.8 mph - N/A   Mostly Cloudy
10:53 PM 61.0 °F - 35.1 °F 38% 29.95 in 10.0 mi North 6.9 mph - N/A   Clear
11:53 PM 57.9 °F - 37.0 °F 46% 29.95 in 10.0 mi Calm Calm - N/A   Clear